Home   Weather   Legnica   Past weeks

Flag for Poland Past Weather in Legnica, Poland — Yesterday and Last 2 Weeks

Now
47 °F

Overcast.


Feels Like: 44 °F
Forecast: 42 / 44 °F
Wind: 5 mph from West

Location: Wroclaw Ii

Current Time: Dec 10, 2016 at 2:02:37 am

Latest Report: Dec 10, 2016 at 12:00 am


Visibility: 9 mi

Pressure: 30.26 "Hg

Humidity: 88%

Dew Point: 43 °F

Location of LegnicaLocation

Past Weather in Legnica — Graph

°F

Legnica Temperature Yesterday

Maximum temperature yesterday: 49 °F (at 12:00 pm)
Minimum temperature yesterday: 39 °F (at 5:00 am)
Average temperature yesterday: 46 °F

High & Low Weather Summary for the Past Weeks

 TemperatureHumidityPressure
High52 °F (Dec 8, 1:00 pm)100% (Nov 26, 5:00 am)30.65 "Hg (Nov 26, 5:00 am)
Low22 °F (Dec 5, 8:00 am)44% (Nov 30, 10:00 am)29.60 "Hg (Dec 2, 2:00 am)
Average35 °F85%30.25 "Hg
* Reported Nov 25 12:00 am — Dec 10 12:00 am, Legnica, Weather by CustomWeather, © 2016

Note: Actual official high and low records may vary slightly from our data, if they occured in-between our weather recording intervals... More about our weather records

Advertising

Legnica Weather History for the Previous 24 Hours

Scroll right to see more
 ConditionsComfort  
Time TempWeatherWind HumidityBarometerVisibility
12:00 am
Sat, Dec 10
47 °FOvercast.5 mph88%30.26 "Hg9 mi
11:00 pm
Fri, Dec 9
47 °FOvercast.7 mph85%30.28 "Hg16 mi
10:00 pmN/APassing clouds.28 mphN/AN/A9 mi
9:00 pm46 °FLow clouds.7 mph92%30.29 "Hg9 mi
8:00 pm46 °FLow clouds.6 mph93%30.29 "Hg9 mi
7:00 pm46 °FDrizzle. Low clouds.6 mph92%30.29 "Hg5 mi
6:00 pm47 °FLow clouds.7 mph89%30.26 "Hg12 mi
5:00 pm47 °FLow clouds.9 mph90%30.24 "Hg16 mi
4:00 pm47 °FLow clouds.8 mph90%30.24 "Hg19 mi
3:00 pm47 °FLight rain. Low clouds.8 mph92%30.24 "Hg5 mi
2:00 pm47 °FOvercast.7 mph86%30.23 "Hg19 mi
1:00 pm48 °FOvercast.8 mph82%30.22 "Hg19 mi
12:00 pm49 °FOvercast.10 mph80%30.21 "Hg19 mi
11:00 am48 °FOvercast.8 mph80%30.23 "Hg19 mi
10:00 am47 °FOvercast.8 mph77%30.24 "Hg16 mi
9:00 am46 °FOvercast.8 mph78%30.22 "Hg22 mi
8:00 am44 °FOvercast.6 mph68%30.21 "Hg25 mi
7:00 am43 °FOvercast.6 mph65%30.22 "Hg25 mi
6:00 am42 °FOvercast.7 mph67%30.22 "Hg25 mi
5:00 am39 °FPassing clouds.5 mph76%30.25 "Hg25 mi
3:00 am43 °FOvercast.1 mph70%30.23 "Hg25 mi
2:00 am43 °FPassing clouds.26 mph76%30.25 "Hg0 mi
Weather by CustomWeather, © 2016

See weather overviewHow to use our weather pages